User: anonymous   Login
Location: The Top Of The Sky Mini Observatory
(41.4300°N, 81.2300°W)
Time: 09:03:56
(UTC-04:00)
Language:

Iridium 86 - Orbit

View from above orbital plane
View from above orbital plane
View from above satellite
View from above satellite

Ground track
Ground track

The orbit data is extracted from the following two-line orbital elements,

1 25528U 98066B   14295.44712310  .00000824  00000-0  28702-3 0  1958
2 25528 086.3993 034.8038 0002027 112.4433 247.6977 14.34216708840513
Epoch (UTC): 22 October 2014 10:43:51
Eccentricity: 0.0002027
inclination: 86.3993°
perigee height: 776 km
apogee height: 779 km
right ascension of ascending node: 34.8038°
argument of perigee: 112.4433°
revolutions per day: 14.34216708
mean anomaly at epoch: 247.6977°
orbit number at epoch: 84051

The dashed part of the orbit path shows where the satellite is in the earth's shadow,  

DLR